[[{"header":{"parameterUnit":"m.s-1","parameterCategory":1,"la1":30.2991,"la2":30.254,"lo1":-89.0895,"lo2":-89.0444,"dy":0.0017,"dx":0.0017,"nx":28,"ny":28,"refTime":"2023-07-23T03:00:00:Z","depth":0,"parameterNumber":2,"parameterNumberName":"U-component_of_WINDS"},"data":[0,0,0,0,0,0,0,0,0,0,0,0,0,0,0,0,0,0,0,0,0,0,0,0,0,0,0,0,0,0,0,0,0,0,0,0,0,0,0,0,0,0,0,0,0,0,0,0,0,0,0,0,0,0,0,0,0,0,-1.1401,-1.14,0,-1.1303,-1.1302,-1.1301,-1.12,-1.1198,-1.1197,-1.1196,-1.1096,-1.1095,-1.1094,0,0,0,0,0,0,0,0,0,0,0,0,0,-1.15,-1.1499,-1.1401,-1.14,-1.1398,-1.1303,-1.1302,-1.1301,-1.12,-1.1198,-1.1197,-1.1195,-1.1097,-1.1095,-1.1094,0,0,0,0,0,0,0,0,0,0,0,0,0,-1.1436,-1.1499,-1.1401,-1.1337,-1.133,-1.1304,-1.1302,-1.13,-1.12,-1.1198,-1.1196,-1.1194,-1.1097,-1.1095,-1.1093,-1.1123,0,0,-1.1087,-1.1086,0,0,0,0,0,0,0,0,-1.1439,-1.1432,-1.1347,-1.1341,-1.1334,-1.1262,-1.1301,-1.1241,-1.1201,-1.125,-1.1196,-1.1193,-1.1153,-1.1146,-1.1133,-1.1118,-1.1114,-1.1087,-1.1086,-1.1085,-1.1084,0,0,0,0,0,0,0,-1.1444,-1.1436,-1.1362,-1.1346,-1.1338,-1.1313,-1.1301,-1.1289,-1.1214,-1.1245,-1.1238,-1.1228,-1.1149,-1.1135,-1.113,-1.1112,-1.1087,-1.1085,-1.1084,-1.1083,-1.1118,-1.112,0,0,0,0,0,0,-1.1458,-1.144,-1.1365,-1.1359,-1.1382,-1.1313,-1.13,-1.1287,-1.1214,-1.1201,-1.1229,-1.1223,-1.1139,-1.1132,-1.1126,-1.1156,-1.1085,-1.1083,-1.1082,-1.1116,-1.1119,-1.1121,0,0,0,0,0,0,-1.1461,-1.1453,-1.1369,-1.1398,-1.1385,-1.1313,-1.1299,-1.1286,-1.1272,-1.1202,-1.1188,-1.1229,-1.1137,-1.1129,-1.1124,-1.1152,-1.1082,-1.108,-1.1113,-1.1117,-1.112,-1.1218,0,0,0,0,0,0,-1.1464,-1.1454,-1.1464,-1.1399,-1.1384,-1.137,-1.1301,-1.1286,-1.1269,-1.1259,-1.1198,-1.1186,-1.1135,-1.1128,-1.1123,-1.1148,-1.1079,-1.1111,-1.1115,-1.1119,-1.1212,-1.1224,-1.1235,0,0,0,0,0,-1.1468,-1.1496,-1.1465,-1.1457,-1.1395,-1.1372,-1.1363,-1.1304,-1.1271,-1.1281,-1.1236,-1.1188,-1.1149,-1.1128,-1.1121,-1.1146,-1.1109,-1.1114,-1.1118,-1.1207,-1.1222,-1.1234,0,0,0,0,0,0,-1.1567,-1.1486,-1.1451,-1.1459,-1.1423,-1.1355,-1.1365,-1.1322,-1.1294,-1.1287,-1.1215,-1.1202,-1.1207,-1.1175,-1.1154,-1.1171,-1.1122,-1.1126,-1.1192,-1.1205,-1.1216,-1.1225,-1.1077,0,0,0,0,0,-1.1589,-1.1577,-1.1506,-1.152,-1.1503,-1.1438,-1.1425,-1.1383,-1.1343,-1.1327,-1.1282,-1.1245,-1.1225,-1.1213,-1.119,-1.1206,-1.1192,-1.122,-1.1231,-1.1241,-1.1246,-1.1253,-1.1265,-1.1137,-1.1137,-1.1137,0,0,-1.1636,-1.159,-1.1587,-1.1538,-1.1506,-1.1495,-1.1426,-1.1417,-1.1408,-1.1326,-1.132,-1.1285,-1.1239,-1.1246,-1.1247,-1.122,-1.1278,-1.1247,-1.1255,-1.1254,-1.126,-1.1272,-1.1283,-1.114,-1.1139,-1.1139,0,0,-1.1716,-1.1679,-1.1687,-1.1655,-1.1607,-1.1563,-1.1565,-1.1503,-1.1477,-1.147,-1.1408,-1.1397,-1.1363,-1.1333,-1.1314,-1.1383,-1.1337,-1.1377,-1.1437,-1.1445,-1.1455,-1.1464,-1.149,-1.15,-1.1381,-1.1382,-1.1382,0,-1.178,-1.1761,-1.1696,-1.1691,-1.1673,-1.1597,-1.1605,-1.1578,-1.1524,-1.1513,-1.1484,-1.1441,-1.1404,-1.1404,-1.1421,-1.1407,-1.1408,-1.1385,-1.1459,-1.1467,-1.1474,-1.1499,-1.1508,-1.1387,-1.1386,-1.1386,-1.1385,0,-1.1843,-1.1831,-1.1843,-1.1794,-1.1776,-1.1777,-1.1713,-1.1703,-1.1662,-1.1622,-1.1616,-1.1569,-1.1537,-1.1533,-1.1493,-1.1527,-1.1512,-1.1472,-1.1422,-1.1493,-1.1515,-1.1523,-1.1395,-1.1393,-1.1391,-1.139,0,0,-1.1983,-1.1898,-1.1904,-1.1881,-1.1822,-1.1811,-1.181,-1.1777,-1.1771,-1.1736,-1.1734,-1.1707,-1.167,-1.1648,-1.1603,-1.161,-1.167,-1.1569,-1.1567,-1.1591,-1.1707,-1.174,-1.1752,-1.1639,-1.1641,-1.1642,-1.1712,0,-1.2054,-1.2047,-1.1989,-1.1998,-1.1987,-1.1915,-1.1914,-1.1878,-1.184,-1.1825,-1.1782,-1.1765,-1.1716,-1.1703,-1.1706,-1.1662,-1.1693,-1.1656,-1.1638,-1.1638,-1.1654,-1.1763,-1.1796,-1.1865,-1.172,-1.1721,-1.1722,0,-1.2136,-1.2108,-1.2116,-1.2058,-1.2051,-1.2051,-1.2017,-1.2003,-1.1961,-1.1933,-1.1909,-1.1859,-1.1853,-1.1805,-1.1797,-1.1774,-1.1762,-1.1739,-1.1741,-1.1738,-1.1686,-1.1765,-1.1885,-1.1897,-1.1735,-1.1734,-1.1733,0,-1.2241,-1.2203,-1.2204,-1.2186,-1.2118,-1.212,-1.2091,-1.2046,-1.2031,-1.2002,-1.1991,-1.1962,-1.1946,-1.1925,-1.1868,-1.1838,-1.1868,-1.1814,-1.1846,-1.1848,-1.1857,-1.1858,-1.1979,-1.1847,-1.1847,-1.1846,-1.1846,0,-1.2327,-1.2336,-1.225,-1.2251,-1.2259,-1.2192,-1.2201,-1.2166,-1.2127,-1.212,-1.2055,-1.205,-1.1975,-1.1962,-1.1917,-1.1919,-1.1912,-1.189,-1.1878,-1.1897,-1.19,-1.189,-1.1885,-1.1849,-1.1848,-1.1848,-1.1847,0,-1.2445,-1.2388,-1.2385,-1.232,-1.2304,-1.2313,-1.2257,-1.2256,-1.2213,-1.2206,-1.22,-1.2134,-1.2115,-1.2056,-1.2022,-1.1992,-1.2008,-1.1984,-1.2023,-1.2016,-1.2051,-1.205,-1.2173,-1.2186,-1.2043,-1.2045,-1.2046,0,-1.2506,-1.2511,-1.2447,-1.2437,-1.2412,-1.2397,-1.2382,-1.2316,-1.2302,-1.2255,-1.2259,-1.2235,-1.2212,-1.2185,-1.2135,-1.2108,-1.2085,-1.213,-1.2081,-1.21,-1.2089,-1.209,-1.2091,-1.2142,-1.2144,-1.2145,-1.2146,0,-1.2619,-1.2591,-1.257,-1.2541,-1.2524,-1.2497,-1.2467,-1.2463,-1.239,-1.2378,-1.2357,-1.234,-1.2305,-1.2283,-1.2248,-1.2219,-1.2172,-1.2162,-1.2168,-1.2188,-1.2211,-1.2202,-1.2054,-1.216,-1.2158,-1.2157,-1.2157,-1.2156,-1.2711,-1.2713,-1.2669,-1.2649,-1.2619,-1.2592,-1.2588,-1.2546,-1.2527,-1.2495,-1.2456,-1.2441,-1.2399,-1.2348,-1.2323,-1.231,-1.2284,-1.2293,-1.2295,-1.2299,-1.2309,-1.2212,-1.2303,-1.2303,-1.2302,-1.2302,-1.2302,0,-1.2823,-1.2791,-1.2773,-1.2733,-1.2718,-1.2673,-1.2637,-1.2628,-1.2615,-1.258,-1.2559,-1.2537,-1.2514,-1.2462,-1.2435,-1.2435,-1.2413,-1.243,-1.2431,-1.2425,-1.2332,-1.2331,-1.2449,-1.2449,-1.2449,-1.2449,-1.2449,-1.2449,-1.288,-1.2881,-1.2848,-1.2834,-1.2801,-1.2786,-1.277,-1.2745,-1.2717,-1.2695,-1.2676,-1.2642,-1.26,-1.2569,-1.2547,-1.2533,-1.2527,-1.2552,-1.2531,-1.2446,-1.2432,-1.2418,-1.2417,-1.2551,-1.2551,-1.2625,-1.2626,-1.2626]},{"header":{"parameterUnit":"m.s-1","parameterCategory":1,"la1":30.2991,"la2":30.254,"lo1":-89.0895,"lo2":-89.0444,"dy":0.0017,"dx":0.0017,"nx":28,"ny":28,"refTime":"2023-07-23T03:00:00:Z","depth":0,"parameterNumber":3,"parameterNumberName":"V-component_of_WINDS"},"data":[0,0,0,0,0,0,0,0,0,0,0,0,0,0,0,0,0,0,0,0,0,0,0,0,0,0,0,0,0,0,0,0,0,0,0,0,0,0,0,0,0,0,0,0,0,0,0,0,0,0,0,0,0,0,0,0,0,0,-0.0015,-0.0014,0,0.0039,0.004,0.0041,0.0039,0.0039,0.0038,0.0037,0.0092,0.0094,0.0096,0,0,0,0,0,0,0,0,0,0,0,0,0,-0.012,-0.0118,-0.0015,-0.0014,-0.0013,0.0039,0.004,0.0041,0.0039,0.0038,0.0038,0.0037,0.0092,0.0094,0.0097,0,0,0,0,0,0,0,0,0,0,0,0,0,-0.0071,-0.0117,-0.0015,-0.0008,-0.0006,0.0039,0.004,0.0041,0.004,0.0038,0.0037,0.0036,0.0091,0.0094,0.0097,0.0139,0,0,0.0107,0.0108,0,0,0,0,0,0,0,0,-0.0074,-0.0067,-0.0009,-0.0008,-0.0007,0.0031,0.0023,0.0074,0.004,0.0022,0.0037,0.0036,0.0073,0.0078,0.009,0.0142,0.0144,0.0107,0.0109,0.0111,0.0111,0,0,0,0,0,0,0,-0.0077,-0.0069,0.0007,-0.0009,-0.0007,-0.0007,-0.0002,0.0033,0.0053,0.0024,0.0024,0.003,0.0073,0.0087,0.0091,0.0145,0.0107,0.011,0.0112,0.0113,0.0232,0.0233,0,0,0,0,0,0,-0.0082,-0.0072,0.0005,0.0008,-0.0044,-0.0005,0.0002,0.002,0.0053,0.0057,0.0031,0.003,0.0082,0.0088,0.0093,0.0143,0.0111,0.0114,0.0115,0.0231,0.0232,0.0233,0,0,0,0,0,0,-0.0084,-0.0075,0.0003,-0.0032,-0.0022,-0.0002,0.0019,0.0022,0.0036,0.0058,0.0062,0.0041,0.0081,0.0089,0.0127,0.0145,0.0115,0.0118,0.0229,0.0231,0.0233,0.0244,0,0,0,0,0,0,-0.0087,-0.0076,-0.0059,-0.0031,-0.002,0.0036,0.002,0.0024,0.0041,0.004,0.0069,0.0072,0.0081,0.0123,0.0131,0.0149,0.0121,0.0228,0.023,0.0232,0.0242,0.0246,0.0249,0,0,0,0,0,-0.0091,-0.0058,-0.0058,-0.0049,0.0001,0.0037,0.0044,0.0053,0.0043,0.0059,0.0073,0.0071,0.0142,0.0126,0.0136,0.0155,0.0227,0.0229,0.0232,0.024,0.0245,0.0249,0,0,0,0,0,0,-0.0084,-0.0054,-0.0054,-0.0011,0.001,0.0037,0.0058,0.0058,0.0083,0.0081,0.0092,0.0098,0.0137,0.015,0.0132,0.0197,0.0183,0.0188,0.0186,0.0191,0.0194,0.019,0.0123,0,0,0,0,0,-0.0077,-0.005,-0.0025,0.001,0.0021,0.0038,0.0054,0.0059,0.0082,0.0091,0.0109,0.0131,0.0158,0.0175,0.0202,0.0244,0.025,0.0262,0.0266,0.0269,0.0272,0.0294,0.0299,0.0242,0.0242,0.0242,0,0,-0.0063,-0.0044,-0.0027,0.0012,0.003,0.0057,0.0045,0.0075,0.0095,0.0096,0.0133,0.0146,0.0172,0.0212,0.0231,0.0224,0.0289,0.0272,0.0274,0.0276,0.0297,0.0302,0.0307,0.0244,0.0244,0.0244,0,0,-0.0025,-0.0006,0.0024,0.0042,0.0068,0.0079,0.0086,0.0113,0.0121,0.0159,0.0159,0.0183,0.023,0.0248,0.0263,0.0307,0.0305,0.0315,0.0333,0.0354,0.0359,0.0363,0.0376,0.0382,0.0319,0.0319,0.0319,0,-0.0011,0.003,0.004,0.0069,0.0086,0.0088,0.0118,0.0135,0.0169,0.018,0.0172,0.023,0.0247,0.0291,0.0301,0.0314,0.0322,0.0311,0.0357,0.0361,0.0365,0.0378,0.0384,0.032,0.032,0.032,0.032,0,0.0045,0.0073,0.0095,0.0127,0.0146,0.0176,0.019,0.0208,0.0211,0.0223,0.026,0.0281,0.031,0.0321,0.0326,0.0365,0.036,0.0355,0.0341,0.0371,0.0384,0.0389,0.0321,0.0321,0.032,0.032,0,0,0.0089,0.0125,0.0133,0.0146,0.0175,0.0197,0.0227,0.0256,0.027,0.0294,0.0317,0.0357,0.0352,0.0369,0.0375,0.0394,0.0425,0.0386,0.0387,0.0391,0.0467,0.0469,0.0475,0.0425,0.0426,0.0427,0.0464,0,0.0129,0.0181,0.019,0.0236,0.0261,0.0263,0.0288,0.0309,0.032,0.0343,0.0355,0.0382,0.0375,0.0385,0.0403,0.0417,0.044,0.0415,0.0446,0.0447,0.0437,0.0482,0.0485,0.052,0.047,0.047,0.0471,0,0.0183,0.0206,0.0254,0.0278,0.0289,0.0311,0.0338,0.036,0.0383,0.039,0.0408,0.0412,0.0442,0.0428,0.0468,0.0451,0.0464,0.0473,0.0474,0.0476,0.0459,0.0483,0.0531,0.0536,0.0479,0.0479,0.0478,0,0.0207,0.0251,0.0285,0.0297,0.0326,0.0342,0.0355,0.0376,0.0392,0.0416,0.0426,0.0452,0.0466,0.0487,0.0497,0.0486,0.0536,0.0523,0.0541,0.0541,0.0551,0.0549,0.0599,0.0562,0.0562,0.0562,0.0562,0,0.025,0.0278,0.0296,0.0316,0.0348,0.0359,0.039,0.0402,0.0421,0.0444,0.0448,0.0468,0.0482,0.0505,0.0513,0.0544,0.0551,0.0557,0.0558,0.0555,0.0554,0.0563,0.056,0.0564,0.0563,0.0563,0.0563,0,0.0282,0.0295,0.0332,0.0356,0.0363,0.0385,0.0406,0.0426,0.0437,0.0465,0.0472,0.049,0.0517,0.0529,0.0563,0.0568,0.0603,0.0604,0.0595,0.0595,0.0612,0.061,0.0668,0.0675,0.0635,0.0635,0.0636,0,0.0308,0.0329,0.0356,0.0371,0.0384,0.0409,0.0425,0.0436,0.0453,0.0479,0.0496,0.0523,0.0544,0.0587,0.0602,0.0628,0.0628,0.0647,0.0632,0.0628,0.0626,0.0624,0.0625,0.0649,0.0649,0.065,0.065,0,0.035,0.0356,0.0379,0.0404,0.0423,0.0444,0.0464,0.0476,0.049,0.0509,0.0536,0.0553,0.0587,0.0613,0.0639,0.0652,0.0653,0.0655,0.066,0.0656,0.0649,0.0651,0.06,0.0653,0.0653,0.0652,0.0652,0.0652,0.0379,0.0398,0.0419,0.0444,0.046,0.0479,0.0498,0.0511,0.0534,0.0562,0.0567,0.0596,0.0616,0.0652,0.0665,0.0687,0.0683,0.0691,0.0693,0.0694,0.0694,0.0647,0.0692,0.0692,0.0692,0.0692,0.0692,0,0.042,0.0434,0.0457,0.0484,0.0504,0.0504,0.0526,0.0542,0.0567,0.0586,0.0608,0.0638,0.0663,0.0681,0.0706,0.072,0.0721,0.0726,0.0724,0.0727,0.0697,0.0689,0.0725,0.0725,0.0725,0.0725,0.0725,0.0725,0.0444,0.0475,0.0482,0.0521,0.0535,0.0562,0.0574,0.0591,0.0607,0.064,0.0661,0.0672,0.069,0.0717,0.074,0.0744,0.0752,0.0757,0.0761,0.0733,0.0729,0.0726,0.0718,0.076,0.076,0.0789,0.0789,0.0789]}]]